Time,TemperatureF,DewpointF,PressureIn,WindDirection,WindDirectionDegrees,WindSpeedMPH,WindSpeedGustMPH,Humidity,HourlyPrecipIn,Conditions,Clouds,dailyrainin,SolarRadiationWatts/m^2,SoftwareType,DateUTC
2013-04-10 00:00:00,70.8,60.9,29.94,WSW,240,6.0,9.0,71,0.00,,---,0.00,0.00,VWS V14.00,2013-04-10 04:00:00,
2013-04-10 00:04:00,70.9,61.0,29.94,WNW,294,4.0,8.0,71,0.00,,---,0.00,0.00,VWS V14.00,2013-04-10 04:04:00,
2013-04-10 00:09:00,70.9,61.0,29.95,West,272,3.0,7.0,71,0.00,,---,0.00,0.00,VWS V14.00,2013-04-10 04:09:00,
2013-04-10 00:14:00,71.0,61.1,29.95,WSW,246,4.0,6.0,71,0.00,,---,0.00,0.00,VWS V14.00,2013-04-10 04:14:00,
2013-04-10 00:19:00,71.0,61.1,29.95,West,261,6.0,7.0,71,0.00,,---,0.00,0.00,VWS V14.00,2013-04-10 04:19:00,
2013-04-10 00:24:00,71.0,61.1,29.95,WSW,238,4.0,6.0,71,0.00,,---,0.00,0.00,VWS V14.00,2013-04-10 04:24:00,
2013-04-10 00:29:00,71.1,61.2,29.95,WSW,254,0.0,7.0,71,0.00,,---,0.00,0.00,VWS V14.00,2013-04-10 04:29:00,
2013-04-10 00:34:00,71.0,61.1,29.95,WSW,248,4.0,5.0,71,0.00,,---,0.00,0.00,VWS V14.00,2013-04-10 04:34:00,
2013-04-10 00:39:00,71.0,61.1,29.95,WSW,246,5.0,7.0,71,0.00,,---,0.00,0.00,VWS V14.00,2013-04-10 04:39:00,
2013-04-10 00:44:00,71.0,61.1,29.94,WSW,257,0.0,6.0,71,0.00,,---,0.00,0.00,VWS V14.00,2013-04-10 04:44:00,
2013-04-10 00:49:00,70.9,61.0,29.94,West,271,3.0,6.0,71,0.00,,---,0.00,0.00,VWS V14.00,2013-04-10 04:49:00,
2013-04-10 00:54:00,70.8,60.9,29.94,WSW,239,6.0,6.0,71,0.00,,---,0.00,0.00,VWS V14.00,2013-04-10 04:54:00,
2013-04-10 00:59:00,70.7,60.8,29.94,SSW,213,5.0,7.0,71,0.00,,---,0.00,0.00,VWS V14.00,2013-04-10 04:59:00,
2013-04-10 01:04:00,70.6,61.1,29.93,SW,215,5.0,7.0,72,0.00,,---,0.00,0.00,VWS V14.00,2013-04-10 05:04:00,
2013-04-10 01:09:00,70.4,61.0,29.93,SW,219,7.0,7.0,72,0.00,,---,0.00,0.00,VWS V14.00,2013-04-10 05:09:00,
2013-04-10 01:14:00,70.2,60.8,29.92,SW,215,5.0,6.0,72,0.00,,---,0.00,0.00,VWS V14.00,2013-04-10 05:14:00,
2013-04-10 01:19:00,70.0,61.0,29.92,SW,228,5.0,8.0,73,0.00,,---,0.00,0.00,VWS V14.00,2013-04-10 05:19:00,
2013-04-10 01:24:00,69.8,61.2,29.92,SW,223,3.0,7.0,74,0.00,,---,0.00,0.00,VWS V14.00,2013-04-10 05:24:00,
2013-04-10 01:29:00,69.6,61.0,29.92,SW,233,4.0,7.0,74,0.00,,---,0.00,0.00,VWS V14.00,2013-04-10 05:29:00,
2013-04-10 01:34:00,69.4,60.8,29.92,WSW,242,1.0,7.0,74,0.00,,---,0.00,0.00,VWS V14.00,2013-04-10 05:34:00,
2013-04-10 01:39:00,69.2,61.0,29.92,SW,215,5.0,9.0,75,0.00,,---,0.00,0.00,VWS V14.00,2013-04-10 05:39:00,
2013-04-10 01:44:00,69.0,60.8,29.93,SW,217,2.0,7.0,75,0.00,,---,0.00,0.00,VWS V14.00,2013-04-10 05:44:00,
2013-04-10 01:49:00,68.8,60.6,29.93,SW,215,4.0,6.0,75,0.00,,---,0.00,0.00,VWS V14.00,2013-04-10 05:49:00,
2013-04-10 01:54:00,68.6,60.7,29.92,South,189,2.0,8.0,76,0.00,,---,0.00,0.00,VWS V14.00,2013-04-10 05:54:00,
2013-04-10 01:59:00,68.5,61.0,29.92,SW,225,6.0,7.0,77,0.00,,---,0.00,0.00,VWS V14.00,2013-04-10 05:59:00,
2013-04-10 02:04:00,68.2,60.7,29.92,SSW,210,2.0,10.0,77,0.00,,---,0.00,0.00,VWS V14.00,2013-04-10 06:04:00,
2013-04-10 02:09:00,68.1,60.6,29.92,South,191,4.0,7.0,77,0.00,,---,0.00,0.00,VWS V14.00,2013-04-10 06:09:00,
2013-04-10 02:14:00,67.9,60.8,29.92,SSW,211,7.0,8.0,78,0.00,,---,0.00,0.00,VWS V14.00,2013-04-10 06:14:00,
2013-04-10 02:19:00,67.8,60.7,29.92,South,189,6.0,10.0,78,0.00,,---,0.00,0.00,VWS V14.00,2013-04-10 06:19:00,
2013-04-10 02:24:00,67.8,60.7,29.92,SSW,201,4.0,10.0,78,0.00,,---,0.00,0.00,VWS V14.00,2013-04-10 06:24:00,
2013-04-10 02:29:00,67.7,60.6,29.92,SW,217,3.0,10.0,78,0.00,,---,0.00,0.00,VWS V14.00,2013-04-10 06:29:00,
2013-04-10 02:34:00,67.6,60.9,29.92,SSW,210,5.0,10.0,79,0.00,,---,0.00,0.00,VWS V14.00,2013-04-10 06:34:00,
2013-04-10 02:39:00,67.6,60.9,29.92,SW,218,4.0,7.0,79,0.00,,---,0.00,0.00,VWS V14.00,2013-04-10 06:39:00,
2013-04-10 02:44:00,67.4,60.7,29.92,SSW,209,5.0,7.0,79,0.00,,---,0.00,0.00,VWS V14.00,2013-04-10 06:44:00,
2013-04-10 02:49:00,67.4,60.7,29.92,SW,219,1.0,9.0,79,0.00,,---,0.00,0.00,VWS V14.00,2013-04-10 06:49:00,
2013-04-10 02:54:00,67.3,60.6,29.92,SW,223,5.0,7.0,79,0.00,,---,0.00,0.00,VWS V14.00,2013-04-10 06:54:00,
2013-04-10 02:59:00,67.2,60.5,29.92,SSW,202,5.0,7.0,79,0.00,,---,0.00,0.00,VWS V14.00,2013-04-10 06:59:00,
2013-04-10 03:04:00,67.2,60.5,29.92,SW,236,4.0,5.0,79,0.00,,---,0.00,0.00,VWS V14.00,2013-04-10 07:04:00,
2013-04-10 03:09:00,67.2,60.8,29.91,SSW,206,2.0,6.0,80,0.00,,---,0.00,0.00,VWS V14.00,2013-04-10 07:09:00,
2013-04-10 03:14:00,67.1,60.7,29.91,SW,220,4.0,6.0,80,0.00,,---,0.00,0.00,VWS V14.00,2013-04-10 07:14:00,
2013-04-10 03:19:00,67.1,60.7,29.91,SW,224,4.0,6.0,80,0.00,,---,0.00,0.00,VWS V14.00,2013-04-10 07:19:00,
2013-04-10 03:24:00,67.0,60.6,29.91,SW,236,0.0,5.0,80,0.00,,---,0.00,0.00,VWS V14.00,2013-04-10 07:24:00,
2013-04-10 03:29:00,66.9,60.5,29.91,SW,236,0.0,2.0,80,0.00,,---,0.00,0.00,VWS V14.00,2013-04-10 07:29:00,
2013-04-10 03:34:00,66.8,60.4,29.90,SW,236,0.0,1.0,80,0.00,,---,0.00,0.00,VWS V14.00,2013-04-10 07:34:00,
2013-04-10 03:39:00,66.7,60.3,29.90,SW,236,4.0,4.0,80,0.00,,---,0.00,0.00,VWS V14.00,2013-04-10 07:39:00,
2013-04-10 03:44:00,66.6,60.2,29.90,SW,236,0.0,4.0,80,0.00,,---,0.00,0.00,VWS V14.00,2013-04-10 07:44:00,
2013-04-10 03:49:00,66.3,60.3,29.90,SW,236,1.0,2.0,81,0.00,,---,0.00,0.00,VWS V14.00,2013-04-10 07:49:00,
2013-04-10 03:54:00,66.1,60.1,29.90,SW,236,1.0,2.0,81,0.00,,---,0.00,0.00,VWS V14.00,2013-04-10 07:54:00,
2013-04-10 03:59:00,66.0,60.0,29.90,SW,236,0.0,2.0,81,0.00,,---,0.00,0.00,VWS V14.00,2013-04-10 07:59:00,
2013-04-10 04:04:00,65.8,60.2,29.90,SW,236,0.0,1.0,82,0.00,,---,0.00,0.00,VWS V14.00,2013-04-10 08:04:00,
2013-04-10 04:09:00,65.7,60.1,29.90,SW,236,0.0,1.0,82,0.00,,---,0.00,0.00,VWS V14.00,2013-04-10 08:09:00,
2013-04-10 04:14:00,65.6,60.0,29.90,SW,236,0.0,1.0,82,0.00,,---,0.00,0.00,VWS V14.00,2013-04-10 08:14:00,
2013-04-10 04:19:00,65.4,59.8,29.90,SW,236,1.0,1.0,82,0.00,,---,0.00,0.00,VWS V14.00,2013-04-10 08:19:00,
2013-04-10 04:24:00,65.3,59.7,29.90,SW,236,0.0,1.0,82,0.00,,---,0.00,0.00,VWS V14.00,2013-04-10 08:24:00,
2013-04-10 04:29:00,65.3,59.7,29.90,SW,236,0.0,1.0,82,0.00,,---,0.00,0.00,VWS V14.00,2013-04-10 08:29:00,
2013-04-10 04:34:00,65.3,60.0,29.90,SW,217,2.0,5.0,83,0.00,,---,0.00,0.00,VWS V14.00,2013-04-10 08:34:00,
2013-04-10 04:39:00,65.6,60.0,29.90,SSW,208,6.0,8.0,82,0.00,,---,0.00,0.00,VWS V14.00,2013-04-10 08:39:00,
2013-04-10 04:44:00,66.1,60.5,29.89,WSW,243,6.0,7.0,82,0.00,,---,0.00,0.00,VWS V14.00,2013-04-10 08:44:00,
2013-04-10 04:49:00,66.5,60.5,29.90,SW,232,2.0,7.0,81,0.00,,---,0.00,0.00,VWS V14.00,2013-04-10 08:49:00,
2013-04-10 04:54:00,66.7,60.3,29.90,SW,234,2.0,6.0,80,0.00,,---,0.00,0.00,VWS V14.00,2013-04-10 08:54:00,
2013-04-10 04:59:00,66.9,60.5,29.90,WSW,257,2.0,5.0,80,0.00,,---,0.00,0.00,VWS V14.00,2013-04-10 08:59:00,
2013-04-10 05:04:00,67.0,60.6,29.90,WSW,241,4.0,6.0,80,0.00,,---,0.00,0.00,VWS V14.00,2013-04-10 09:04:00,
2013-04-10 05:09:00,67.2,60.5,29.90,SW,219,4.0,7.0,79,0.00,,---,0.00,0.00,VWS V14.00,2013-04-10 09:09:00,
2013-04-10 05:14:00,67.2,60.5,29.90,SW,218,4.0,7.0,79,0.00,,---,0.00,0.00,VWS V14.00,2013-04-10 09:14:00,
2013-04-10 05:19:00,67.2,60.5,29.90,SW,228,2.0,7.0,79,0.00,,---,0.00,0.00,VWS V14.00,2013-04-10 09:19:00,
2013-04-10 05:24:00,67.2,60.5,29.90,SW,217,4.0,8.0,79,0.00,,---,0.00,0.00,VWS V14.00,2013-04-10 09:24:00,
2013-04-10 05:29:00,67.2,60.1,29.90,SW,216,4.0,8.0,78,0.00,,---,0.00,0.00,VWS V14.00,2013-04-10 09:29:00,
2013-04-10 05:34:00,67.3,60.2,29.90,SW,228,6.0,7.0,78,0.00,,---,0.00,0.00,VWS V14.00,2013-04-10 09:34:00,
2013-04-10 05:39:00,67.4,60.3,29.90,South,187,7.0,8.0,78,0.00,,---,0.00,0.00,VWS V14.00,2013-04-10 09:39:00,
2013-04-10 05:44:00,67.4,60.0,29.90,SSW,213,8.0,10.0,77,0.00,,---,0.00,0.00,VWS V14.00,2013-04-10 09:44:00,
2013-04-10 05:49:00,67.5,60.0,29.90,SW,224,4.0,10.0,77,0.00,,---,0.00,0.00,VWS V14.00,2013-04-10 09:49:00,
2013-04-10 05:54:00,67.6,60.1,29.90,SW,235,9.0,13.0,77,0.00,,---,0.00,0.00,VWS V14.00,2013-04-10 09:54:00,
2013-04-10 06:00:00,67.7,59.9,29.91,SW,224,8.0,11.0,76,0.00,,---,0.00,0.00,VWS V14.00,2013-04-10 10:00:00,
2013-04-10 06:05:00,67.7,59.9,29.91,SW,234,4.0,12.0,76,0.00,,---,0.00,0.00,VWS V14.00,2013-04-10 10:05:00,
2013-04-10 06:10:00,67.8,60.0,29.91,West,259,5.0,11.0,76,0.00,,---,0.00,0.00,VWS V14.00,2013-04-10 10:10:00,
2013-04-10 06:15:00,67.9,59.7,29.91,SW,234,6.0,10.0,75,0.00,,---,0.00,0.00,VWS V14.00,2013-04-10 10:15:00,
2013-04-10 06:20:00,68.0,59.8,29.91,SW,225,6.0,12.0,75,0.00,,---,0.00,0.00,VWS V14.00,2013-04-10 10:20:00,
2013-04-10 06:25:00,68.1,59.9,29.91,SW,231,7.0,9.0,75,0.00,,---,0.00,0.00,VWS V14.00,2013-04-10 10:25:00,
2013-04-10 06:30:00,68.1,59.9,29.91,South,188,8.0,10.0,75,0.00,,---,0.00,0.00,VWS V14.00,2013-04-10 10:30:00,
2013-04-10 06:35:00,68.2,59.6,29.91,WSW,248,10.0,12.0,74,0.00,,---,0.00,0.00,VWS V14.00,2013-04-10 10:35:00,
2013-04-10 06:40:00,68.3,59.7,29.91,South,180,3.0,13.0,74,0.00,,---,0.00,0.00,VWS V14.00,2013-04-10 10:40:00,
2013-04-10 06:45:00,68.3,59.7,29.91,SW,225,9.0,13.0,74,0.00,,---,0.00,0.00,VWS V14.00,2013-04-10 10:45:00,
2013-04-10 06:50:00,68.2,59.6,29.90,SW,216,12.0,12.0,74,0.00,,---,0.00,0.00,VWS V14.00,2013-04-10 10:50:00,
2013-04-10 06:55:00,68.2,59.6,29.91,SW,215,7.0,12.0,74,0.00,,---,0.00,0.00,VWS V14.00,2013-04-10 10:55:00,
2013-04-10 07:00:00,68.1,59.5,29.91,SW,220,6.0,12.0,74,0.00,,---,0.00,0.00,VWS V14.00,2013-04-10 11:00:00,
2013-04-10 07:05:00,68.1,59.5,29.91,South,182,7.0,13.0,74,0.00,,---,0.00,0.00,VWS V14.00,2013-04-10 11:05:00,
2013-04-10 07:10:00,67.9,59.7,29.91,SW,216,5.0,10.0,75,0.00,,---,0.00,0.00,VWS V14.00,2013-04-10 11:10:00,
2013-04-10 07:15:00,67.8,59.2,29.91,SW,220,9.0,13.0,74,0.00,,---,0.00,0.00,VWS V14.00,2013-04-10 11:15:00,
2013-04-10 07:20:00,67.8,59.6,29.91,SSW,213,7.0,13.0,75,0.00,,---,0.00,7.00,VWS V14.00,2013-04-10 11:20:00,
2013-04-10 07:25:00,67.8,59.6,29.91,SSW,197,8.0,11.0,75,0.00,,---,0.00,12.00,VWS V14.00,2013-04-10 11:25:00,
2013-04-10 07:30:00,67.6,59.4,29.91,SW,236,3.0,11.0,75,0.00,,---,0.00,16.00,VWS V14.00,2013-04-10 11:30:00,
2013-04-10 07:35:00,67.6,59.4,29.91,SW,224,7.0,8.0,75,0.00,,---,0.00,21.00,VWS V14.00,2013-04-10 11:35:00,
2013-04-10 07:40:00,67.5,59.3,29.91,SSW,196,10.0,12.0,75,0.00,,---,0.00,21.00,VWS V14.00,2013-04-10 11:40:00,
2013-04-10 07:45:00,67.5,59.3,29.92,WSW,242,8.0,12.0,75,0.00,,---,0.00,32.00,VWS V14.00,2013-04-10 11:45:00,
2013-04-10 07:50:00,67.6,59.4,29.92,SSW,209,8.0,12.0,75,0.00,,---,0.00,32.00,VWS V14.00,2013-04-10 11:50:00,
2013-04-10 07:55:00,67.6,59.4,29.92,SW,235,8.0,13.0,75,0.00,,---,0.00,42.00,VWS V14.00,2013-04-10 11:55:00,
2013-04-10 08:00:00,67.6,59.4,29.92,West,276,5.0,11.0,75,0.00,,---,0.00,40.00,VWS V14.00,2013-04-10 12:00:00,
2013-04-10 08:05:00,67.7,59.5,29.92,SW,232,5.0,15.0,75,0.00,,---,0.00,65.00,VWS V14.00,2013-04-10 12:05:00,
2013-04-10 08:10:00,67.8,59.6,29.91,SW,229,7.0,11.0,75,0.00,,---,0.00,105.00,VWS V14.00,2013-04-10 12:10:00,
2013-04-10 08:15:00,67.9,59.7,29.91,SW,222,6.0,9.0,75,0.00,,---,0.00,67.00,VWS V14.00,2013-04-10 12:15:00,
2013-04-10 08:20:00,68.0,59.8,29.91,SW,227,8.0,8.0,75,0.00,,---,0.00,77.00,VWS V14.00,2013-04-10 12:20:00,
2013-04-10 08:25:00,68.0,59.8,29.91,SW,219,10.0,12.0,75,0.00,,---,0.00,109.00,VWS V14.00,2013-04-10 12:25:00,
2013-04-10 08:30:00,68.1,59.5,29.91,SW,221,12.0,12.0,74,0.00,,---,0.00,146.00,VWS V14.00,2013-04-10 12:30:00,
2013-04-10 08:35:00,68.3,59.7,29.91,WSW,241,9.0,9.0,74,0.00,,---,0.00,188.00,VWS V14.00,2013-04-10 12:35:00,
2013-04-10 08:40:00,68.6,60.0,29.91,SW,233,8.0,10.0,74,0.00,,---,0.00,216.00,VWS V14.00,2013-04-10 12:40:00,
2013-04-10 08:45:00,68.8,60.2,29.91,SW,223,6.0,6.0,74,0.00,,---,0.00,176.00,VWS V14.00,2013-04-10 12:45:00,
2013-04-10 08:50:00,69.2,60.2,29.91,SW,223,8.0,8.0,73,0.00,,---,0.00,229.00,VWS V14.00,2013-04-10 12:50:00,
2013-04-10 08:55:00,69.5,60.5,29.91,SW,236,12.0,14.0,73,0.00,,---,0.00,139.00,VWS V14.00,2013-04-10 12:55:00,
2013-04-10 09:00:00,69.8,60.8,29.91,SW,215,11.0,14.0,73,0.00,,---,0.00,288.00,VWS V14.00,2013-04-10 13:00:00,
2013-04-10 09:05:00,70.1,61.0,29.91,SW,214,12.0,12.0,73,0.00,,---,0.00,151.00,VWS V14.00,2013-04-10 13:05:00,
2013-04-10 09:10:00,70.2,61.2,29.91,SW,223,12.0,12.0,73,0.00,,---,0.00,246.00,VWS V14.00,2013-04-10 13:10:00,
2013-04-10 09:15:00,70.5,61.4,29.91,West,263,5.0,7.0,73,0.00,,---,0.00,241.00,VWS V14.00,2013-04-10 13:15:00,
2013-04-10 09:20:00,70.7,61.2,29.91,West,259,8.0,8.0,72,0.00,,---,0.00,199.00,VWS V14.00,2013-04-10 13:20:00,
2013-04-10 09:25:00,70.8,61.3,29.91,WNW,296,11.0,16.0,72,0.00,,---,0.00,327.00,VWS V14.00,2013-04-10 13:25:00,
2013-04-10 09:30:00,71.1,61.6,29.91,SW,221,9.0,10.0,72,0.00,,---,0.00,339.00,VWS V14.00,2013-04-10 13:30:00,
2013-04-10 09:35:00,71.3,61.8,29.91,WSW,237,7.0,13.0,72,0.00,,---,0.00,355.00,VWS V14.00,2013-04-10 13:35:00,
2013-04-10 09:40:00,71.5,62.0,29.91,NW,304,9.0,11.0,72,0.00,,---,0.00,380.00,VWS V14.00,2013-04-10 13:40:00,
2013-04-10 09:45:00,71.8,62.3,29.91,WSW,258,4.0,12.0,72,0.00,,---,0.00,366.00,VWS V14.00,2013-04-10 13:45:00,
2013-04-10 09:50:00,72.1,62.6,29.91,SW,230,4.0,9.0,72,0.00,,---,0.00,359.00,VWS V14.00,2013-04-10 13:50:00,
2013-04-10 09:55:00,72.4,62.9,29.91,SSW,211,13.0,18.0,72,0.00,,---,0.00,346.00,VWS V14.00,2013-04-10 13:55:00,
2013-04-10 10:00:00,72.6,63.1,29.91,SSW,209,8.0,11.0,72,0.00,,---,0.00,352.00,VWS V14.00,2013-04-10 14:00:00,
2013-04-10 10:05:00,72.8,62.9,29.91,SW,227,14.0,14.0,71,0.00,,---,0.00,380.00,VWS V14.00,2013-04-10 14:05:00,
2013-04-10 10:10:00,73.1,63.5,29.91,West,266,9.0,11.0,72,0.00,,---,0.00,469.00,VWS V14.00,2013-04-10 14:10:00,
2013-04-10 10:15:00,73.6,63.6,29.91,WSW,255,10.0,15.0,71,0.00,,---,0.00,369.00,VWS V14.00,2013-04-10 14:15:00,
2013-04-10 10:20:00,74.1,64.5,29.91,NW,306,11.0,12.0,72,0.00,,---,0.00,496.00,VWS V14.00,2013-04-10 14:20:00,
2013-04-10 10:25:00,74.1,64.1,29.91,West,264,16.0,21.0,71,0.00,,---,0.00,264.00,VWS V14.00,2013-04-10 14:25:00,
2013-04-10 10:30:00,73.8,63.8,29.91,SW,232,10.0,21.0,71,0.00,,---,0.00,195.00,VWS V14.00,2013-04-10 14:30:00,
2013-04-10 10:35:00,73.5,63.9,29.92,SW,223,3.0,10.0,72,0.00,,---,0.00,301.00,VWS V14.00,2013-04-10 14:35:00,
2013-04-10 10:40:00,73.7,64.5,29.92,WSW,250,10.0,14.0,73,0.00,,---,0.00,301.00,VWS V14.00,2013-04-10 14:40:00,
2013-04-10 10:45:00,73.9,64.3,29.92,West,267,14.0,14.0,72,0.00,,---,0.00,359.00,VWS V14.00,2013-04-10 14:45:00,
2013-04-10 10:50:00,73.7,64.1,29.91,WNW,284,9.0,19.0,72,0.00,,---,0.00,332.00,VWS V14.00,2013-04-10 14:50:00,
2013-04-10 10:55:00,73.8,64.6,29.92,West,281,6.0,13.0,73,0.00,,---,0.00,338.00,VWS V14.00,2013-04-10 14:55:00,
2013-04-10 11:00:00,74.1,64.9,29.92,West,274,6.0,8.0,73,0.00,,---,0.00,450.00,VWS V14.00,2013-04-10 15:00:00,
2013-04-10 11:05:00,74.1,64.5,29.92,West,273,14.0,14.0,72,0.00,,---,0.00,301.00,VWS V14.00,2013-04-10 15:05:00,
2013-04-10 11:10:00,74.2,64.6,29.92,WSW,254,10.0,18.0,72,0.00,,---,0.00,582.00,VWS V14.00,2013-04-10 15:10:00,
2013-04-10 11:15:00,74.5,64.9,29.92,NW,304,7.0,7.0,72,0.00,,---,0.00,566.00,VWS V14.00,2013-04-10 15:15:00,
2013-04-10 11:20:00,75.0,65.4,29.92,WSW,254,6.0,8.0,72,0.00,,---,0.00,504.00,VWS V14.00,2013-04-10 15:20:00,
2013-04-10 11:25:00,75.2,65.2,29.92,NW,306,10.0,15.0,71,0.00,,---,0.00,323.00,VWS V14.00,2013-04-10 15:25:00,
2013-04-10 11:30:00,74.9,65.3,29.92,SW,221,13.0,16.0,72,0.00,,---,0.00,396.00,VWS V14.00,2013-04-10 15:30:00,
2013-04-10 11:35:00,74.9,65.3,29.92,SSW,213,9.0,9.0,72,0.00,,---,0.00,408.00,VWS V14.00,2013-04-10 15:35:00,
2013-04-10 11:40:00,75.0,65.4,29.92,WNW,287,9.0,11.0,72,0.00,,---,0.00,353.00,VWS V14.00,2013-04-10 15:40:00,
2013-04-10 11:45:00,75.1,65.5,29.92,SW,231,12.0,14.0,72,0.00,,---,0.00,253.00,VWS V14.00,2013-04-10 15:45:00,
2013-04-10 11:50:00,75.1,65.5,29.92,SW,221,7.0,11.0,72,0.00,,---,0.00,281.00,VWS V14.00,2013-04-10 15:50:00,
2013-04-10 11:55:00,74.7,65.1,29.92,West,259,18.0,18.0,72,0.00,,---,0.00,223.00,VWS V14.00,2013-04-10 15:55:00,
2013-04-10 12:00:00,74.4,65.2,29.92,West,261,10.0,13.0,73,0.00,,---,0.00,313.00,VWS V14.00,2013-04-10 16:00:00,
2013-04-10 12:05:00,74.6,65.4,29.92,SSW,194,8.0,15.0,73,0.00,,---,0.00,392.00,VWS V14.00,2013-04-10 16:05:00,
2013-04-10 12:10:00,75.0,65.8,29.92,SW,219,8.0,11.0,73,0.00,,---,0.00,483.00,VWS V14.00,2013-04-10 16:10:00,
2013-04-10 12:15:00,75.5,65.4,29.91,West,259,9.0,19.0,71,0.00,,---,0.00,418.00,VWS V14.00,2013-04-10 16:15:00,
2013-04-10 12:20:00,75.5,65.4,29.91,WSW,254,10.0,14.0,71,0.00,,---,0.00,446.00,VWS V14.00,2013-04-10 16:20:00,
2013-04-10 12:25:00,75.9,65.8,29.91,WNW,285,6.0,9.0,71,0.00,,---,0.00,436.00,VWS V14.00,2013-04-10 16:25:00,
2013-04-10 12:30:00,76.0,65.9,29.91,WNW,289,5.0,7.0,71,0.00,,---,0.00,378.00,VWS V14.00,2013-04-10 16:30:00,
2013-04-10 12:35:00,76.1,65.6,29.91,West,272,9.0,11.0,70,0.00,,---,0.00,417.00,VWS V14.00,2013-04-10 16:35:00,
2013-04-10 12:40:00,76.1,65.6,29.91,West,279,7.0,11.0,70,0.00,,---,0.00,413.00,VWS V14.00,2013-04-10 16:40:00,
2013-04-10 12:45:00,76.3,65.8,29.90,SSW,209,8.0,15.0,70,0.00,,---,0.00,439.00,VWS V14.00,2013-04-10 16:45:00,
2013-04-10 12:50:00,76.5,65.6,29.90,SSE,162,12.0,16.0,69,0.00,,---,0.00,383.00,VWS V14.00,2013-04-10 16:50:00,
2013-04-10 12:55:00,76.7,65.8,29.90,WSW,242,5.0,18.0,69,0.00,,---,0.00,448.00,VWS V14.00,2013-04-10 16:55:00,
2013-04-10 13:00:00,77.0,65.6,29.90,WSW,241,12.0,13.0,68,0.00,,---,0.00,415.00,VWS V14.00,2013-04-10 17:00:00,
2013-04-10 13:05:00,77.2,65.8,29.90,WSW,242,7.0,19.0,68,0.00,,---,0.00,497.00,VWS V14.00,2013-04-10 17:05:00,
2013-04-10 13:10:00,77.5,65.7,29.90,WSW,246,12.0,22.0,67,0.00,,---,0.00,438.00,VWS V14.00,2013-04-10 17:10:00,
2013-04-10 13:15:00,77.5,65.7,29.90,WNW,287,10.0,19.0,67,0.00,,---,0.00,459.00,VWS V14.00,2013-04-10 17:15:00,
2013-04-10 13:20:00,77.3,65.5,29.90,SW,233,14.0,19.0,67,0.00,,---,0.00,422.00,VWS V14.00,2013-04-10 17:20:00,
2013-04-10 13:25:00,77.4,65.6,29.89,West,262,8.0,16.0,67,0.00,,---,0.00,737.00,VWS V14.00,2013-04-10 17:25:00,
2013-04-10 13:31:00,77.9,66.1,29.89,West,279,6.0,15.0,67,0.00,,---,0.00,874.00,VWS V14.00,2013-04-10 17:31:00,
2013-04-10 13:36:00,78.5,66.2,29.89,West,269,7.0,10.0,66,0.00,,---,0.00,886.00,VWS V14.00,2013-04-10 17:36:00,
2013-04-10 13:41:00,79.3,66.5,29.89,West,262,7.0,11.0,65,0.00,,---,0.00,858.00,VWS V14.00,2013-04-10 17:41:00,
2013-04-10 13:46:00,79.9,66.7,29.89,SSW,211,21.0,21.0,64,0.00,,---,0.00,738.00,VWS V14.00,2013-04-10 17:46:00,
2013-04-10 13:51:00,80.1,65.9,29.88,West,273,7.0,15.0,62,0.00,,---,0.00,814.00,VWS V14.00,2013-04-10 17:51:00,
2013-04-10 13:56:00,80.2,66.0,29.88,West,265,11.0,18.0,62,0.00,,---,0.00,812.00,VWS V14.00,2013-04-10 17:56:00,
2013-04-10 14:01:00,80.3,66.6,29.87,SW,227,14.0,14.0,63,0.00,,---,0.00,814.00,VWS V14.00,2013-04-10 18:01:00,
2013-04-10 14:06:00,80.7,66.5,29.88,West,279,9.0,15.0,62,0.00,,---,0.00,831.00,VWS V14.00,2013-04-10 18:06:00,
2013-04-10 14:11:00,80.7,66.0,29.87,WSW,254,7.0,14.0,61,0.00,,---,0.00,522.00,VWS V14.00,2013-04-10 18:11:00,
2013-04-10 14:20:00,80.7,65.5,29.87,SW,216,13.0,18.0,60,0.00,,---,0.00,432.00,VWS V14.00,2013-04-10 18:20:00,
2013-04-10 14:25:00,80.8,65.6,29.87,WNW,295,7.0,19.0,60,0.00,,---,0.00,404.00,VWS V14.00,2013-04-10 18:25:00,
2013-04-10 14:30:00,81.0,65.8,29.87,WSW,252,11.0,23.0,60,0.00,,---,0.00,779.00,VWS V14.00,2013-04-10 18:30:00,
2013-04-10 14:35:00,81.0,65.3,29.86,West,261,13.0,22.0,59,0.00,,---,0.00,459.00,VWS V14.00,2013-04-10 18:35:00,
2013-04-10 14:40:00,80.7,65.5,29.86,West,275,8.0,22.0,60,0.00,,---,0.00,387.00,VWS V14.00,2013-04-10 18:40:00,
2013-04-10 14:45:00,81.0,65.8,29.84,WNW,284,14.0,18.0,60,0.00,,---,0.00,858.00,VWS V14.00,2013-04-10 18:45:00,
2013-04-10 14:50:00,81.5,64.8,29.84,West,269,13.0,24.0,57,0.00,,---,0.00,833.00,VWS V14.00,2013-04-10 18:50:00,
2013-04-10 14:55:00,81.9,65.7,29.84,NW,304,15.0,23.0,58,0.00,,---,0.00,821.00,VWS V14.00,2013-04-10 18:55:00,
2013-04-10 15:00:00,81.7,65.0,29.84,SW,214,22.0,27.0,57,0.00,,---,0.00,812.00,VWS V14.00,2013-04-10 19:00:00,
2013-04-10 15:05:00,81.6,64.9,29.84,West,273,8.0,22.0,57,0.00,,---,0.00,789.00,VWS V14.00,2013-04-10 19:05:00,
2013-04-10 15:10:00,81.7,65.0,29.83,WSW,242,6.0,15.0,57,0.00,,---,0.00,809.00,VWS V14.00,2013-04-10 19:10:00,
2013-04-10 15:15:00,81.9,64.2,29.83,WSW,255,12.0,22.0,55,0.00,,---,0.00,830.00,VWS V14.00,2013-04-10 19:15:00,
2013-04-10 15:20:00,81.9,64.7,29.83,SW,225,13.0,22.0,56,0.00,,---,0.00,793.00,VWS V14.00,2013-04-10 19:20:00,
2013-04-10 15:25:00,82.0,65.8,29.83,SW,226,5.0,16.0,58,0.00,,---,0.00,735.00,VWS V14.00,2013-04-10 19:25:00,
2013-04-10 15:30:00,82.3,64.5,29.82,SW,230,5.0,19.0,55,0.00,,---,0.00,698.00,VWS V14.00,2013-04-10 19:30:00,
2013-04-10 15:35:00,82.1,64.3,29.82,SW,232,8.0,13.0,55,0.00,,---,0.00,657.00,VWS V14.00,2013-04-10 19:35:00,
2013-04-10 15:40:00,81.8,64.1,29.82,WSW,251,16.0,26.0,55,0.00,,---,0.00,661.00,VWS V14.00,2013-04-10 19:40:00,
2013-04-10 15:45:00,81.7,64.5,29.82,SW,217,13.0,13.0,56,0.00,,---,0.00,721.00,VWS V14.00,2013-04-10 19:45:00,
2013-04-10 15:50:00,81.8,64.6,29.82,SW,220,6.0,14.0,56,0.00,,---,0.00,264.00,VWS V14.00,2013-04-10 19:50:00,
2013-04-10 15:55:00,81.7,64.5,29.82,West,261,12.0,16.0,56,0.00,,---,0.00,707.00,VWS V14.00,2013-04-10 19:55:00,
2013-04-10 16:00:00,81.9,64.7,29.81,WNW,293,9.0,9.0,56,0.00,,---,0.00,712.00,VWS V14.00,2013-04-10 20:00:00,
2013-04-10 16:05:00,82.2,65.5,29.81,WNW,295,7.0,10.0,57,0.00,,---,0.00,708.00,VWS V14.00,2013-04-10 20:05:00,
2013-04-10 16:10:00,82.4,64.6,29.81,WSW,238,18.0,18.0,55,0.00,,---,0.00,715.00,VWS V14.00,2013-04-10 20:10:00,
2013-04-10 16:15:00,82.4,65.1,29.81,WSW,251,8.0,15.0,56,0.00,,---,0.00,605.00,VWS V14.00,2013-04-10 20:15:00,
2013-04-10 16:20:00,82.6,64.8,29.80,SW,235,14.0,20.0,55,0.00,,---,0.00,715.00,VWS V14.00,2013-04-10 20:20:00,
2013-04-10 16:25:00,82.2,64.4,29.80,SW,229,9.0,15.0,55,0.00,,---,0.00,663.00,VWS V14.00,2013-04-10 20:25:00,
2013-04-10 16:30:00,82.0,64.8,29.80,WSW,245,10.0,13.0,56,0.00,,---,0.00,666.00,VWS V14.00,2013-04-10 20:30:00,
2013-04-10 16:35:00,82.1,64.9,29.80,WSW,250,4.0,8.0,56,0.00,,---,0.00,664.00,VWS V14.00,2013-04-10 20:35:00,
2013-04-10 16:40:00,82.3,64.5,29.80,SW,232,8.0,12.0,55,0.00,,---,0.00,642.00,VWS V14.00,2013-04-10 20:40:00,
2013-04-10 16:45:00,82.1,64.3,29.80,WSW,243,10.0,16.0,55,0.00,,---,0.00,592.00,VWS V14.00,2013-04-10 20:45:00,
2013-04-10 16:50:00,82.3,65.1,29.80,SW,232,9.0,10.0,56,0.00,,---,0.00,659.00,VWS V14.00,2013-04-10 20:50:00,
2013-04-10 16:55:00,82.9,64.6,29.80,West,263,9.0,12.0,54,0.00,,---,0.00,671.00,VWS V14.00,2013-04-10 20:55:00,
2013-04-10 17:00:00,82.7,63.8,29.80,West,276,10.0,15.0,53,0.00,,---,0.00,248.00,VWS V14.00,2013-04-10 21:00:00,
2013-04-10 17:05:00,82.3,64.0,29.81,South,182,10.0,10.0,54,0.00,,---,0.00,571.00,VWS V14.00,2013-04-10 21:05:00,
2013-04-10 17:10:00,82.4,64.1,29.80,WSW,246,7.0,9.0,54,0.00,,---,0.00,591.00,VWS V14.00,2013-04-10 21:10:00,
2013-04-10 17:15:00,82.6,64.3,29.80,WSW,243,7.0,10.0,54,0.00,,---,0.00,497.00,VWS V14.00,2013-04-10 21:15:00,
2013-04-10 17:20:00,82.5,63.7,29.79,SW,219,12.0,16.0,53,0.00,,---,0.00,499.00,VWS V14.00,2013-04-10 21:20:00,
2013-04-10 17:25:00,82.0,63.7,29.79,SW,217,6.0,13.0,54,0.00,,---,0.00,441.00,VWS V14.00,2013-04-10 21:25:00,
2013-04-10 17:30:00,81.9,63.6,29.79,WSW,242,11.0,18.0,54,0.00,,---,0.00,489.00,VWS V14.00,2013-04-10 21:30:00,
2013-04-10 17:35:00,81.9,63.6,29.78,WSW,249,13.0,16.0,54,0.00,,---,0.00,471.00,VWS V14.00,2013-04-10 21:35:00,
2013-04-10 17:40:00,81.7,63.5,29.78,SW,216,14.0,20.0,54,0.00,,---,0.00,401.00,VWS V14.00,2013-04-10 21:40:00,
2013-04-10 17:45:00,81.6,63.4,29.78,SSW,200,20.0,20.0,54,0.00,,---,0.00,417.00,VWS V14.00,2013-04-10 21:45:00,
2013-04-10 17:50:00,81.6,63.4,29.78,WSW,241,14.0,15.0,54,0.00,,---,0.00,424.00,VWS V14.00,2013-04-10 21:50:00,
2013-04-10 17:55:00,81.6,63.4,29.78,WSW,250,7.0,12.0,54,0.00,,---,0.00,404.00,VWS V14.00,2013-04-10 21:55:00,
2013-04-10 18:00:00,81.7,63.5,29.78,SSW,205,14.0,14.0,54,0.00,,---,0.00,380.00,VWS V14.00,2013-04-10 22:00:00,
2013-04-10 18:05:00,81.8,63.5,29.78,SW,232,9.0,16.0,54,0.00,,---,0.00,371.00,VWS V14.00,2013-04-10 22:05:00,
2013-04-10 18:10:00,81.9,63.6,29.77,SW,224,13.0,18.0,54,0.00,,---,0.00,369.00,VWS V14.00,2013-04-10 22:10:00,
2013-04-10 18:15:00,82.0,63.7,29.77,SW,229,6.0,13.0,54,0.00,,---,0.00,355.00,VWS V14.00,2013-04-10 22:15:00,
2013-04-10 18:20:00,82.1,63.8,29.77,West,261,5.0,12.0,54,0.00,,---,0.00,329.00,VWS V14.00,2013-04-10 22:20:00,
2013-04-10 18:25:00,82.0,63.7,29.76,WSW,255,11.0,20.0,54,0.00,,---,0.00,294.00,VWS V14.00,2013-04-10 22:25:00,
2013-04-10 18:30:00,81.7,63.5,29.77,West,259,9.0,15.0,54,0.00,,---,0.00,287.00,VWS V14.00,2013-04-10 22:30:00,
2013-04-10 18:35:00,81.7,64.0,29.76,WSW,254,9.0,10.0,55,0.00,,---,0.00,220.00,VWS V14.00,2013-04-10 22:35:00,
2013-04-10 18:40:00,81.6,63.9,29.76,SW,227,8.0,14.0,55,0.00,,---,0.00,206.00,VWS V14.00,2013-04-10 22:40:00,
2013-04-10 18:45:00,81.6,63.9,29.76,WSW,248,8.0,10.0,55,0.00,,---,0.00,218.00,VWS V14.00,2013-04-10 22:45:00,
2013-04-10 18:50:00,81.4,63.7,29.76,WNW,286,13.0,18.0,55,0.00,,---,0.00,195.00,VWS V14.00,2013-04-10 22:50:00,
2013-04-10 18:55:00,81.1,63.9,29.77,SW,219,10.0,15.0,56,0.00,,---,0.00,142.00,VWS V14.00,2013-04-10 22:55:00,
2013-04-10 19:00:00,80.9,63.8,29.76,West,264,6.0,13.0,56,0.00,,---,0.00,174.00,VWS V14.00,2013-04-10 23:00:00,
2013-04-10 19:05:00,80.9,63.8,29.77,SSW,209,11.0,14.0,56,0.00,,---,0.00,162.00,VWS V14.00,2013-04-10 23:05:00,
2013-04-10 19:10:00,80.8,63.7,29.77,NNW,328,5.0,11.0,56,0.00,,---,0.00,100.00,VWS V14.00,2013-04-10 23:10:00,
2013-04-10 19:15:00,80.7,63.6,29.77,WSW,248,8.0,8.0,56,0.00,,---,0.00,81.00,VWS V14.00,2013-04-10 23:15:00,
2013-04-10 19:20:00,80.5,63.9,29.77,SW,223,9.0,11.0,57,0.00,,---,0.00,81.00,VWS V14.00,2013-04-10 23:20:00,
2013-04-10 19:25:00,80.4,63.8,29.77,SW,223,4.0,8.0,57,0.00,,---,0.00,81.00,VWS V14.00,2013-04-10 23:25:00,
2013-04-10 19:30:00,80.3,63.7,29.77,SW,234,7.0,8.0,57,0.00,,---,0.00,77.00,VWS V14.00,2013-04-10 23:30:00,
2013-04-10 19:35:00,80.1,63.5,29.76,South,182,10.0,11.0,57,0.00,,---,0.00,67.00,VWS V14.00,2013-04-10 23:35:00,
2013-04-10 19:40:00,80.0,63.4,29.76,SSW,213,10.0,12.0,57,0.00,,---,0.00,47.00,VWS V14.00,2013-04-10 23:40:00,
2013-04-10 19:45:00,79.8,63.2,29.76,SW,220,6.0,13.0,57,0.00,,---,0.00,35.00,VWS V14.00,2013-04-10 23:45:00,
2013-04-10 19:51:00,79.6,63.0,29.76,South,190,11.0,19.0,57,0.00,,---,0.00,25.00,VWS V14.00,2013-04-10 23:51:00,
2013-04-10 19:56:00,79.4,62.9,29.77,SSW,206,7.0,9.0,57,0.00,,---,0.00,16.00,VWS V14.00,2013-04-10 23:56:00,
2013-04-10 20:01:00,79.2,63.2,29.76,WSW,238,8.0,12.0,58,0.00,,---,0.00,9.00,VWS V14.00,2013-04-11 00:01:00,
2013-04-10 20:06:00,79.1,63.1,29.76,SW,215,9.0,10.0,58,0.00,,---,0.00,0.00,VWS V14.00,2013-04-11 00:06:00,
2013-04-10 20:11:00,78.9,62.9,29.76,SSW,205,5.0,8.0,58,0.00,,---,0.00,0.00,VWS V14.00,2013-04-11 00:11:00,
2013-04-10 20:16:00,78.7,62.7,29.76,WSW,255,5.0,9.0,58,0.00,,---,0.00,0.00,VWS V14.00,2013-04-11 00:16:00,
2013-04-10 20:21:00,78.5,63.0,29.76,WSW,238,10.0,10.0,59,0.00,,---,0.00,0.00,VWS V14.00,2013-04-11 00:21:00,
2013-04-10 20:26:00,78.4,62.9,29.76,SSW,205,8.0,8.0,59,0.00,,---,0.00,0.00,VWS V14.00,2013-04-11 00:26:00,
2013-04-10 20:31:00,78.2,62.7,29.76,South,182,7.0,8.0,59,0.00,,---,0.00,0.00,VWS V14.00,2013-04-11 00:31:00,
2013-04-10 20:36:00,78.0,62.5,29.76,WSW,246,7.0,8.0,59,0.00,,---,0.00,0.00,VWS V14.00,2013-04-11 00:36:00,
2013-04-10 20:45:00,77.8,62.8,29.76,WSW,242,5.0,10.0,60,0.00,,---,0.00,0.00,VWS V14.00,2013-04-11 00:45:00,
2013-04-10 20:50:00,77.8,62.8,29.75,SW,225,6.0,12.0,60,0.00,,---,0.00,0.00,VWS V14.00,2013-04-11 00:50:00,
2013-04-10 20:55:00,77.7,62.7,29.75,SW,215,4.0,8.0,60,0.00,,---,0.00,0.00,VWS V14.00,2013-04-11 00:55:00,
2013-04-10 21:00:00,77.5,62.5,29.75,SW,217,5.0,9.0,60,0.00,,---,0.00,0.00,VWS V14.00,2013-04-11 01:00:00,
2013-04-10 21:05:00,77.2,62.7,29.75,SSW,202,6.0,7.0,61,0.00,,---,0.00,0.00,VWS V14.00,2013-04-11 01:05:00,
2013-04-10 21:10:00,77.0,62.5,29.75,SW,220,5.0,9.0,61,0.00,,---,0.00,0.00,VWS V14.00,2013-04-11 01:10:00,
2013-04-10 21:15:00,76.9,62.4,29.75,SSW,211,6.0,10.0,61,0.00,,---,0.00,0.00,VWS V14.00,2013-04-11 01:15:00,
2013-04-10 21:20:00,76.9,62.4,29.75,WSW,242,5.0,11.0,61,0.00,,---,0.00,0.00,VWS V14.00,2013-04-11 01:20:00,
2013-04-10 21:25:00,76.8,62.3,29.75,SW,223,4.0,8.0,61,0.00,,---,0.00,0.00,VWS V14.00,2013-04-11 01:25:00,
2013-04-10 21:30:00,76.7,62.2,29.75,SW,218,1.0,7.0,61,0.00,,---,0.00,0.00,VWS V14.00,2013-04-11 01:30:00,
2013-04-10 21:35:00,76.5,62.1,29.75,SW,219,4.0,7.0,61,0.00,,---,0.00,0.00,VWS V14.00,2013-04-11 01:35:00,
2013-04-10 21:40:00,76.3,62.3,29.75,SW,217,1.0,7.0,62,0.00,,---,0.00,0.00,VWS V14.00,2013-04-11 01:40:00,
2013-04-10 21:45:00,76.0,62.0,29.75,SW,217,0.0,4.0,62,0.00,,---,0.00,0.00,VWS V14.00,2013-04-11 01:45:00,
2013-04-10 21:50:00,75.7,62.2,29.75,SW,216,0.0,4.0,63,0.00,,---,0.00,0.00,VWS V14.00,2013-04-11 01:50:00,
2013-04-10 21:55:00,75.4,61.9,29.75,SSW,213,2.0,4.0,63,0.00,,---,0.00,0.00,VWS V14.00,2013-04-11 01:55:00,
2013-04-10 22:00:00,75.2,62.2,29.75,SSW,213,0.0,2.0,64,0.00,,---,0.00,0.00,VWS V14.00,2013-04-11 02:00:00,
2013-04-10 22:05:00,75.0,62.0,29.76,SSW,213,1.0,4.0,64,0.00,,---,0.00,0.00,VWS V14.00,2013-04-11 02:05:00,
2013-04-10 22:10:00,74.9,61.9,29.76,SSW,209,0.0,4.0,64,0.00,,---,0.00,0.00,VWS V14.00,2013-04-11 02:10:00,
2013-04-10 22:17:00,74.8,61.8,29.75,SSW,210,3.0,3.0,64,0.00,,---,0.00,0.00,VWS V14.00,2013-04-11 02:17:00,
2013-04-10 22:22:00,74.7,61.7,29.75,SSE,167,2.0,4.0,64,0.00,,---,0.00,0.00,VWS V14.00,2013-04-11 02:22:00,
2013-04-10 22:27:00,74.6,61.6,29.75,South,180,2.0,6.0,64,0.00,,---,0.00,0.00,VWS V14.00,2013-04-11 02:27:00,
2013-04-10 22:32:00,74.5,61.5,29.74,South,171,0.0,4.0,64,0.00,,---,0.00,0.00,VWS V14.00,2013-04-11 02:32:00,
2013-04-10 22:37:00,74.5,61.5,29.73,South,170,1.0,2.0,64,0.00,,---,0.00,0.00,VWS V14.00,2013-04-11 02:37:00,
2013-04-10 22:42:00,74.3,61.3,29.73,SSE,165,2.0,5.0,64,0.00,,---,0.00,0.00,VWS V14.00,2013-04-11 02:42:00,
2013-04-10 22:47:00,74.1,61.6,29.73,SSE,155,2.0,5.0,65,0.00,,---,0.00,0.00,VWS V14.00,2013-04-11 02:47:00,
2013-04-10 22:52:00,74.0,61.5,29.74,SSE,155,2.0,4.0,65,0.00,,---,0.00,0.00,VWS V14.00,2013-04-11 02:52:00,
2013-04-10 22:57:00,73.8,61.3,29.74,SSE,156,1.0,3.0,65,0.00,,---,0.00,0.00,VWS V14.00,2013-04-11 02:57:00,
2013-04-10 23:02:00,73.6,61.1,29.74,SSE,162,0.0,1.0,65,0.00,,---,0.00,0.00,VWS V14.00,2013-04-11 03:02:00,
2013-04-10 23:07:00,73.5,61.0,29.74,SSE,156,1.0,4.0,65,0.00,,---,0.00,0.00,VWS V14.00,2013-04-11 03:07:00,
2013-04-10 23:12:00,73.4,60.9,29.74,South,171,0.0,5.0,65,0.00,,---,0.00,0.00,VWS V14.00,2013-04-11 03:12:00,
2013-04-10 23:17:00,73.4,60.9,29.75,SSW,199,4.0,6.0,65,0.00,,---,0.00,0.00,VWS V14.00,2013-04-11 03:17:00,
2013-04-10 23:22:00,73.3,61.3,29.75,SSW,207,2.0,7.0,66,0.00,,---,0.00,0.00,VWS V14.00,2013-04-11 03:22:00,
2013-04-10 23:27:00,73.3,61.3,29.75,SSW,211,4.0,6.0,66,0.00,,---,0.00,0.00,VWS V14.00,2013-04-11 03:27:00,
2013-04-10 23:32:00,73.3,61.3,29.75,SSW,200,4.0,7.0,66,0.00,,---,0.00,0.00,VWS V14.00,2013-04-11 03:32:00,
2013-04-10 23:37:00,73.3,61.3,29.75,SW,217,4.0,8.0,66,0.00,,---,0.00,0.00,VWS V14.00,2013-04-11 03:37:00,
2013-04-10 23:42:00,73.2,61.2,29.75,SSW,200,1.0,7.0,66,0.00,,---,0.00,0.00,VWS V14.00,2013-04-11 03:42:00,
2013-04-10 23:47:00,73.2,61.2,29.75,SSW,202,4.0,7.0,66,0.00,,---,0.00,0.00,VWS V14.00,2013-04-11 03:47:00,
2013-04-10 23:52:00,73.3,60.8,29.74,SSW,207,5.0,7.0,65,0.00,,---,0.00,0.00,VWS V14.00,2013-04-11 03:52:00,
2013-04-10 23:57:00,73.5,61.0,29.74,South,186,3.0,7.0,65,0.00,,---,0.00,0.00,VWS V14.00,2013-04-11 03:57:00,